Regional Weather Roundup
Issued by NWS

Home | Current Version | Previous Version | Graphics & Text | Print | Product List | Glossary On
Versions: 1 2 3 4 5 6 7 8 9 10 11 12 13 14 15 16 17 18 19 20 21 22 23 24 25 26 27 28 29 30 31 32 33 34 35 36 37 38 39 40 41 42 43 44 45 46 47 48 49 50
000
ASUS43 KFSD 120002
RWRSD

WEATHER ROUNDUP FOR SOUTH DAKOTA
NATIONAL WEATHER SERVICE SIOUX FALLS SD
600 PM CST THU FEB 11 2016

NOTE: "FAIR" INDICATES FEW OR NO CLOUDS BELOW 12,000 FEET WITH NO
SIGNIFICANT WEATHER AND/OR OBSTRUCTIONS TO VISIBILITY.


SDZ001>005-009-010-012>017-120100-
NORTHWEST AND NORTH CENTRAL SOUTH DAKOTA

CITY           SKY/WX    TMP DP  RH WIND       PRES   REMARKS
BUFFALO          N/A     33  29  85 N8        30.09R WCI  26
FAITH            N/A     31  26  82 NE10      30.13R WCI  22
MOBRIDGE       CLOUDY    28  24  85 N6        30.15R WCI  22
$$

SDZ012>016-024>037-041>051-057-063-072>074-120100-
SOUTHWEST AND SOUTH CENTRAL SOUTH DAKOTA

CITY           SKY/WX    TMP DP  RH WIND       PRES   REMARKS
RAPID CTY ARPT CLOUDY    46  31  55 N18G29    30.10R
PIERRE         CLOUDY    28  25  88 E6        30.14R WCI  22
CUSTER         CLEAR     43  20  39 NW15G33   30.12R
ELLSWORTH AFB  CLOUDY    46  33  60 N16       30.10R
PHILIP         MOCLDY    34  28  79 E6        30.12R WCI  29
PINE RIDGE     CLOUDY    51  27  39 N13       30.09R
WINNER         CLOUDY    31  26  82 NE9       30.12R WCI  23
$$

SDZ004>011-016>023-039-040-120100-
NORTHEAST SOUTH DAKOTA

CITY           SKY/WX    TMP DP  RH WIND       PRES   REMARKS
ABERDEEN       CLEAR     19  15  84 N5        30.20R WCI  12
WATERTOWN      LGT SNOW  18  13  80 CALM      30.14R
BROOKINGS      LGT SNOW  17  13  84 S5        30.16R FOG     WCI  10
SISSETON         N/A     17  12  80 NE3       30.21R
$$

SDZ017-020-022-023-036>040-048>070-120100-
SOUTHEAST SOUTH DAKOTA

CITY           SKY/WX    TMP DP  RH WIND       PRES   REMARKS
SIOUX FALLS    LGT SNOW  18  13  80 S3        30.18R
HURON          LGT SNOW  23  19  85 CALM      30.18R FOG
MITCHELL       LGT SNOW  21  17  84 E6        30.19R FOG     WCI  13
YANKTON        CLOUDY    19  18  93 E8        30.17R WCI   9
$$

ABBREVIATIONS USED IN REMARKS
   TC - TEMPERATURE IN CELSIUS
  WCI - WIND CHILL INDEX
   HX - HEAT INDEX
  VSB - VISIBILITY




USA.gov is the U.S. government's official web portal to all federal, state and local government web resources and services.